Weather in Chernomorskiy

Russia / Krasnodar Krai     44°50′52″N   38°29′52″E
temp.,
°C
wind,
m/s
gust,
m/s
humid.,
%
clouds,
%
prec.,
mm/h
press.,
hPa
HPBL,
m
15 june, tue
tue1500:00+17ne259498 0.0 1008105
03:00+16wnw2297100 1.9 100843
06:00+16sse2297100 1.2 100881
09:00+21sse388172 3.3 1009767
12:00+25s576212 0.6 10091348
15:00+25sw45540 0.7 10101282
18:00+23w22630 0.0 1010639
21:00+16ssw22890 0.0 101113
16 june, wed
wed1600:00+15s119047 0.0 101011
03:00+14nnw11943 0.0 101117
06:00+15wnw149499 0.4 1011158
09:00+17nnw2492100 0.5 1011383
12:00+19nne248392 0.1 1011556
15:00+22ne367693 0.2 1008835
18:00+23nne258284 0.2 1006774
21:00+20nnw11964 0.4 100523
17 june, thu
thu1700:00+19s2399100 0.1 100599
03:00+18s6139464 3.7 1007751
06:00+18ssw3796100 0.9 1009484
09:00+19ssw388978 1.8 1012831
12:00+23ssw685913 0.1 10141365
15:00+23sw465610 0.1 10151516
18:00+22sw23642 0.0 1016874
21:00+16s11890 0.0 101811
18 june, fri
fri1800:00+15sse00910 0.0 101810
03:00+14se11930 0.0 101811
06:00+16se11900 0.0 101944
09:00+21ene35700 0.0 1018656
12:00+25ene456111 0.0 10181236
15:00+26ene455514 0.0 10171544
18:00+24ene47760 0.2 1017641
21:00+19ne28977 0.3 1017250
19 june, sat
sat1900:00+18ne299946 0.0 1016419
03:00+17ne119954 0.0 101623
06:00+17ene139772 0.0 1016171
09:00+23ene47745 0.0 1015609
12:00+27ene796420 0.0 10141152
15:00+29ene7105815 0.0 10131582
18:00+26ene813630 0.0 10121066
21:00+24ene715600 0.0 1013823